CW4038 Weather Reports


Display with metric or nautical units.
time (UTC)temp
F
wind
direction
speed
MPH
gust
MPH
rain 1hr
in
rain 24hr
in
rain mn
in
humidity
%
barometer
mb
20180918224949 89 14 2.0 5.0 0.00 0.00 0.00 31 1009.4
20180918224049 87 45 1.0 6.0 0.00 0.00 0.00 32 1009.4
20180918223148 88 26 3.0 6.0 0.00 0.00 0.00 32 1009.7
20180918222246 87 350 2.0 6.0 0.00 0.00 0.00 34 1009.7
20180918221346 87 313 2.0 5.0 0.00 0.00 0.00 34 1009.7
20180918220445 87 328 2.0 5.0 0.00 0.00 0.00 34 1009.7
20180918215544 87 345 1.0 4.0 0.00 0.00 0.00 33 1009.7
20180918214643 86 100 2.0 4.0 0.00 0.00 0.00 34 1010.0
20180918213742 87 323 2.0 4.0 0.00 0.00 0.00 33 1010.1
20180918212841 86 308 2.0 4.0 0.00 0.00 0.00 34 1010.0
20180918211940 86 314 2.0 5.0 0.00 0.00 0.00 34 1010.4
20180918211039 86 319 2.0 5.0 0.00 0.00 0.00 35 1010.4
20180918210138 86 94 2.0 4.0 0.00 0.00 0.00 34 1010.7
20180918205237 85 41 2.0 5.0 0.00 0.00 0.00 34 1010.7
20180918204336 84 46 1.0 5.0 0.00 0.00 0.00 35 1010.7
20180918203435 84 41 3.0 5.0 0.00 0.00 0.00 36 1011.0
20180918202534 84 317 2.0 5.0 0.00 0.00 0.00 37 1011.0
20180918201633 83 207 2.0 3.0 0.00 0.00 0.00 36 1011.4
20180918200733 83 6 1.0 5.0 0.00 0.00 0.00 39 1011.4
20180918195831 82 292 2.0 5.0 0.00 0.00 0.00 38 1011.4
20180918194931 82 325 2.0 5.0 0.00 0.00 0.00 37 1011.7
20180918194030 82 316 1.0 4.0 0.00 0.00 0.00 40 1011.7
20180918193129 81 315 2.0 4.0 0.00 0.00 0.00 41 1011.7
20180918192228 81 328 2.0 5.0 0.00 0.00 0.00 40 1012.0
20180918191327 80 307 2.0 5.0 0.00 0.00 0.00 41 1012.0
20180918190426 80 19 1.0 4.0 0.00 0.00 0.00 42 1012.4
20180918185525 80 31 2.0 5.0 0.00 0.00 0.00 42 1012.4
20180918184624 79 73 1.0 6.0 0.00 0.00 0.00 43 1012.4
20180918183724 78 329 1.0 6.0 0.00 0.00 0.00 45 1012.7
20180918182822 78 340 2.0 4.0 0.00 0.00 0.00 45 1012.7
20180918181922 77 303 2.0 4.0 0.00 0.00 0.00 47 1013.0
20180918181021 76 290 1.0 3.0 0.00 0.00 0.00 47 1013.0
20180918180119 75 305 1.0 3.0 0.00 0.00 0.00 48 1013.0
20180918175219 74 354 1.0 4.0 0.00 0.00 0.00 50 1013.0
20180918174318 74 310 2.0 4.0 0.00 0.00 0.00 51 1013.0
20180918173623 73 302 1.0 4.0 0.00 0.00 0.00 52 1013.3
20180918171614 71 347 2.0 3.0 0.00 0.00 0.00 54 1013.3
20180918170713 71 339 2.0 3.0 0.00 0.00 0.00 53 1013.6
20180918165812 71 246 1.0 3.0 0.00 0.00 0.00 53 1013.3
20180918164911 72 41 1.0 3.0 0.00 0.00 0.00 53 1013.7
20180918164010 71 341 1.0 3.0 0.00 0.00 0.00 53 1013.7
20180918163110 71 276 0.0 3.0 0.00 0.00 0.00 55 1013.7
20180918162208 70 5 1.0 2.0 0.00 0.00 0.00 56 1013.7
20180918161308 70 192 1.0 2.0 0.00 0.00 0.00 56 1013.7
20180918160407 69 324 1.0 2.0 0.00 0.00 0.00 57 1013.7
20180918155505 68 168 1.0 4.0 0.00 0.00 0.00 58 1013.7
20180918154605 67 193 1.0 4.0 0.00 0.00 0.00 59 1013.6
20180918153704 67 160 2.0 3.0 0.00 0.00 0.00 61 1013.6
20180918152802 65 173 1.0 3.0 0.00 0.00 0.00 63 1013.6
20180918151901 64 144 1.0 2.0 0.00 0.00 0.00 66 1013.6
20180918151000 62 158 1.0 2.0 0.00 0.00 0.00 68 1013.6
20180918150059 61 156 1.0 1.0 0.00 0.00 0.00 71 1013.6
20180918145158 60 141 0.0 0.0 0.00 0.00 0.00 74 1013.6
20180918144258 59 141 0.0 0.0 0.00 0.00 0.00 76 1013.6
20180918143357 58 141 0.0 1.0 0.00 0.00 0.00 78 1013.6
20180918142456 57 139 0.0 1.0 0.00 0.00 0.00 79 1013.2
20180918141555 57 139 0.0 0.0 0.00 0.00 0.00 78 1013.2
20180918140654 57 140 0.0 0.0 0.00 0.00 0.00 77 1013.2
20180918135753 57 139 0.0 1.0 0.00 0.00 0.00 76 1013.3
20180918134852 58 139 1.0 1.0 0.00 0.00 0.00 77 1012.9
20180918133952 58 142 0.0 1.0 0.00 0.00 0.00 75 1013.0
20180918133050 58 139 0.0 1.0 0.00 0.00 0.00 75 1013.0
20180918132149 58 139 0.0 1.0 0.00 0.00 0.00 75 1013.0
20180918131248 58 131 1.0 1.0 0.00 0.00 0.00 76 1013.0
20180918130346 57 136 0.0 0.0 0.00 0.00 0.00 78 1013.0
20180918125446 56 107 0.0 0.0 0.00 0.00 0.00 81 1013.0
20180918124545 56 6 0.0 0.0 0.00 0.00 0.00 81 1012.7
20180918123644 56 6 0.0 0.0 0.00 0.00 0.00 80 1012.7
20180918122743 57 6 0.0 0.0 0.00 0.00 0.00 79 1012.7
20180918121842 57 6 0.0 0.0 0.00 0.00 0.00 80 1012.7
20180918120941 57 6 0.0 0.0 0.00 0.00 0.00 78 1012.7
20180918120040 57 6 0.0 0.0 0.00 0.00 0.00 75 1012.7
20180918115139 58 5 0.0 0.0 0.00 0.00 0.00 73 1012.7
20180918114238 59 6 0.0 0.0 0.00 0.00 0.00 72 1012.7
20180918113337 60 6 0.0 0.0 0.00 0.00 0.00 71 1012.8
20180918112436 60 6 0.0 1.0 0.00 0.00 0.00 71 1012.4
20180918111535 61 5 0.0 1.0 0.00 0.00 0.00 70 1012.4
20180918110634 61 5 0.0 2.0 0.00 0.00 0.00 69 1012.4
20180918105734 61 335 1.0 2.0 0.00 0.00 0.00 69 1012.4
20180918104833 61 322 1.0 3.0 0.00 0.00 0.00 68 1012.1
20180918103932 62 328 1.0 4.0 0.00 0.00 0.00 67 1012.1
20180918103031 62 334 1.0 4.0 0.00 0.00 0.00 66 1012.1
20180918102129 62 327 2.0 4.0 0.00 0.00 0.00 66 1012.4
20180918101229 63 325 1.0 4.0 0.00 0.00 0.00 67 1012.4
20180918100328 63 323 1.0 4.0 0.00 0.00 0.00 66 1012.1
20180918095427 64 327 1.0 4.0 0.00 0.00 0.00 65 1012.1
20180918094526 64 333 2.0 4.0 0.00 0.00 0.00 64 1012.1
20180918093625 64 334 1.0 3.0 0.00 0.00 0.00 64 1012.1
20180918092724 63 319 1.0 2.0 0.00 0.00 0.00 65 1012.1
20180918091823 63 302 1.0 2.0 0.00 0.00 0.00 65 1012.1
20180918090923 62 235 0.0 0.0 0.00 0.00 0.00 68 1012.1
20180918090022 62 224 0.0 0.0 0.00 0.00 0.00 70 1011.7
20180918085121 63 216 0.0 0.0 0.00 0.00 0.00 70 1011.7
20180918084220 63 217 0.0 0.0 0.00 0.00 0.00 69 1012.0
20180918083318 63 217 0.0 0.0 0.00 0.00 0.00 70 1011.7
20180918082418 64 217 0.0 0.0 0.00 0.00 0.00 69 1011.7
20180918081517 64 217 0.0 0.0 0.00 0.00 0.00 69 1011.7
20180918080616 65 217 0.0 0.0 0.00 0.00 0.00 67 1011.7
20180918075715 65 217 0.0 0.0 0.00 0.00 0.00 67 1011.7
20180918074814 65 217 0.0 0.0 0.00 0.00 0.00 64 1011.7
20180918073913 66 216 0.0 0.0 0.00 0.00 0.00 63 1011.7
20180918073012 67 217 0.0 0.0 0.00 0.00 0.00 61 1011.7
20180918072111 67 217 0.0 0.0 0.00 0.00 0.00 60 1011.7
20180918071210 67 217 0.0 0.0 0.00 0.00 0.00 60 1011.7
20180918070309 68 148 0.0 0.0 0.00 0.00 0.00 57 1011.7
20180918065409 68 148 0.0 0.0 0.00 0.00 0.00 57 1011.4
20180918064508 68 349 0.0 0.0 0.00 0.00 0.00 56 1011.4
20180918063607 68 350 0.0 0.0 0.00 0.00 0.00 55 1011.4
20180918062706 68 349 0.0 0.0 0.00 0.00 0.00 55 1011.4
20180918061805 67 349 0.0 0.0 0.00 0.00 0.00 57 1011.3
20180918060904 67 349 0.0 0.0 0.00 0.00 0.00 59 1011.3
20180918060004 67 350 0.0 0.0 0.00 0.00 0.00 61 1011.3
20180918055102 68 349 0.0 0.0 0.00 0.00 0.00 62 1011.3
20180918054202 68 350 0.0 0.0 0.00 0.00 0.00 60 1011.3
20180918053301 69 349 0.0 0.0 0.00 0.00 0.00 59 1011.3
20180918052400 70 349 0.0 0.0 0.00 0.00 0.00 58 1011.3
20180918051459 70 350 0.0 0.0 0.00 0.00 0.00 59 1011.3
20180918050559 70 350 0.0 0.0 0.00 0.00 0.00 57 1011.0
20180918045657 70 349 0.0 0.0 0.00 0.00 0.00 58 1011.0
20180918044757 71 350 0.0 0.0 0.00 0.00 0.00 57 1011.0
20180918043855 71 350 0.0 0.0 0.00 0.00 0.00 58 1011.0
20180918042955 71 349 0.0 0.0 0.00 0.00 0.00 55 1010.9
20180918042053 72 350 0.0 0.0 0.00 0.00 0.00 54 1010.9
20180918041153 72 350 0.0 0.0 0.00 0.00 0.00 52 1010.6
20180918040252 73 349 0.0 0.0 0.00 0.00 0.00 50 1010.6
20180918035351 74 350 0.0 0.0 0.00 0.00 0.00 49 1010.6
20180918034450 74 350 0.0 0.0 0.00 0.00 0.00 48 1010.6
20180918033549 74 350 0.0 0.0 0.00 0.00 0.00 47 1010.6
20180918032648 74 350 0.0 0.0 0.00 0.00 0.00 49 1010.2
20180918031747 75 349 0.0 0.0 0.00 0.00 0.00 46 1010.2
20180918030847 76 350 0.0 0.0 0.00 0.00 0.00 44 1010.2
20180918025945 76 350 0.0 0.0 0.00 0.00 0.00 43 1009.9
20180918025044 77 350 0.0 0.0 0.00 0.00 0.00 42 1009.9
20180918024144 77 349 0.0 0.0 0.00 0.00 0.00 41 1009.8
20180918023243 78 350 0.0 0.0 0.00 0.00 0.00 40 1009.9
20180918022341 79 350 0.0 0.0 0.00 0.00 0.00 40 1009.9
20180918020539 81 349 0.0 1.0 0.00 0.00 0.00 37 1009.9
20180918015638 82 350 0.0 2.0 0.00 0.00 0.00 36 1009.9
20180918014737 83 347 1.0 2.0 0.00 0.00 0.00 35 1009.9
20180918013837 84 320 1.0 5.0 0.00 0.00 0.00 35 1009.5
20180918012935 85 302 1.0 5.0 0.00 0.00 0.00 33 1009.6
20180918012035 86 313 0.0 3.0 0.00 0.00 0.00 33 1009.6
20180918011134 87 321 1.0 3.0 0.00 0.00 0.00 32 1009.6
20180918010233 88 285 1.0 6.0 0.00 0.00 0.00 31 1009.6
20180918005332 88 320 1.0 6.0 0.00 0.00 0.00 31 1009.6
20180918004431 88 322 2.0 5.0 0.00 0.00 0.00 31 1009.9
20180918003530 89 347 1.0 5.0 0.00 0.00 0.00 29 1009.6
20180918001728 89 327 2.0 5.0 0.00 0.00 0.00 30 1010.0
20180918000827 90 243 1.0 3.0 0.00 0.00 0.00 28 1010.0
20180917235926 90 321 1.0 4.0 0.00 0.00 0.00 26 1010.0
20180917235025 90 352 1.0 4.0 0.00 0.00 0.00 28 1010.0
20180917234124 92 314 1.0 3.0 0.00 0.00 0.00 26 1010.0
20180917233223 92 340 1.0 4.0 0.00 0.00 0.00 28 1010.0
20180917232323 90 36 1.0 4.0 0.00 0.00 0.00 27 1010.4
20180917231422 90 74 2.0 4.0 0.00 0.00 0.00 28 1010.4
20180917230521 90 286 1.0 4.0 0.00 0.00 0.00 29 1010.4